Weather History for Jackson, MN

Change the Weather History Date:

Tuesday, December 18, 2012

  Actual Average Record
Temperature  
Mean Temperature 30 °F -  
Max Temperature 32 °F 24 °F 46 °F (2011)
Min Temperature 28 °F 10 °F -5 °F (1996)
Degree Days  
Heating Degree Days 35    
Moisture  
Dew Point 27 °F    
Average Humidity 90    
Maximum Humidity 93    
Minimum Humidity 86    
Precipitation  
Precipitation 0.06 in - - ()
Sea Level Pressure  
Sea Level Pressure 29.65 in    
Wind  
Wind Speed 7 mph (SSE)    
Max Wind Speed 17 mph    
Max Gust Speed 21 mph    
Visibility 3 miles    
Events Snow    
Averages and records for this station are not official NWS values.
T = Trace of Precipitation, MM = Missing Value Source: NWS Daily Summary

Daily Weather History Graph

Daily Weather History Graph

Search for Another Location

Airport:

Trip Planner

Search our weather history database for the weather conditions in past years. The results will help you decide how hot, cold, wet, or windy it might be!

Date:

Astronomy

Dec. 18, 2012 Rise Set
Actual Time 7:48 AM CST 4:44 PM CST
Civil Twilight 7:16 AM CST 5:17 PM CST
Nautical Twilight 6:39 AM CST 5:54 PM CST
Astronomical Twilight 6:04 AM CST 6:29 PM CST
Moon 11:19 AM CST (12/18) 11:23 PM CST (12/18)
Length of Visible Light 10h 01m
Length of Day
8h 56m
Waxing Crescent, 35% of the Moon is Illuminated
Dec 18
Waxing Crescent
Dec 19
First Quarter
Dec 28
Full
Jan 4
Last Quarter
Jan 11
New

Hourly Weather History & Observations

Time (CST) Temp. Windchill Dew Point Humidity Pressure Visibility Wind Dir Wind Speed Gust Speed Precip Events Conditions
12:13 AM 28.4 °F 22.2 °F 26.6 °F 93% 29.62 in 2.5 mi SE 5.8 mph - N/A   Overcast
12:33 AM 28.4 °F 21.2 °F 26.6 °F 93% 29.61 in 2.5 mi SE 6.9 mph - N/A   Overcast
12:53 AM 28.4 °F 21.2 °F 26.6 °F 93% 29.60 in 2.0 mi SE 6.9 mph - N/A   Overcast
1:13 AM 30.2 °F 23.4 °F 26.6 °F 86% 29.60 in 3.0 mi SSE 6.9 mph - N/A   Overcast
1:33 AM 30.2 °F 22.6 °F 26.6 °F 86% 29.60 in 3.0 mi SSE 8.1 mph - N/A   Overcast
1:53 AM 30.2 °F 23.4 °F 28.4 °F 93% 29.59 in 2.0 mi SE 6.9 mph - N/A   Overcast
2:13 AM 30.2 °F 23.4 °F 28.4 °F 93% 29.58 in 2.0 mi SE 6.9 mph - N/A   Overcast
2:33 AM 30.2 °F 23.4 °F 28.4 °F 93% 29.58 in 2.0 mi SE 6.9 mph - N/A   Overcast
2:53 AM 30.2 °F 22.6 °F 28.4 °F 93% 29.58 in 2.5 mi SSE 8.1 mph - N/A   Overcast
3:13 AM 30.2 °F 21.3 °F 28.4 °F 93% 29.57 in 3.0 mi SSE 10.4 mph - N/A   Overcast
3:32 AM 30.2 °F 22.6 °F 28.4 °F 93% 29.56 in 2.5 mi SE 8.1 mph - N/A   Overcast
3:53 AM 30.2 °F 21.3 °F 28.4 °F 93% 29.54 in 2.5 mi ESE 10.4 mph - N/A   Overcast
4:13 AM 30.2 °F 21.3 °F 28.4 °F 93% 29.54 in 2.5 mi ESE 10.4 mph - N/A   Overcast
4:32 AM 30.2 °F 21.3 °F 28.4 °F 93% 29.53 in 2.5 mi SE 10.4 mph - N/A   Overcast
4:53 AM 30.2 °F 21.3 °F 28.4 °F 93% 29.54 in 2.5 mi ESE 10.4 mph - N/A   Overcast
5:13 AM 30.2 °F 21.3 °F 28.4 °F 93% 29.53 in 2.0 mi SE 10.4 mph - N/A   Overcast
5:33 AM 30.2 °F 22.6 °F 28.4 °F 93% 29.53 in 2.0 mi ESE 8.1 mph - N/A   Overcast
5:53 AM 30.2 °F 21.3 °F 28.4 °F 93% 29.52 in 1.5 mi ESE 10.4 mph - N/A Snow Light Snow
6:13 AM 30.2 °F 22.6 °F 28.4 °F 93% 29.52 in 1.5 mi ESE 8.1 mph - N/A Snow Light Snow
6:33 AM 30.2 °F 21.9 °F 28.4 °F 93% 29.52 in 1.8 mi ESE 9.2 mph - N/A Snow Light Snow
6:53 AM 30.2 °F 23.4 °F 28.4 °F 93% 29.53 in 0.8 mi East 6.9 mph - N/A Snow Snow
7:13 AM 30.2 °F 23.4 °F 28.4 °F 93% 29.53 in 0.8 mi East 6.9 mph - N/A Snow Snow
7:33 AM 30.2 °F 23.4 °F 28.4 °F 93% 29.54 in 0.8 mi ENE 6.9 mph - N/A Snow Snow
7:53 AM 30.2 °F 24.3 °F 26.6 °F 86% 29.55 in 0.5 mi ENE 5.8 mph - N/A Snow Snow
8:13 AM 30.2 °F 25.4 °F 26.6 °F 86% 29.56 in 0.5 mi ENE 4.6 mph - N/A Snow Light Snow
8:33 AM 28.4 °F 22.2 °F 26.6 °F 93% 29.56 in 0.5 mi ENE 5.8 mph - N/A Snow Light Snow
8:53 AM 28.4 °F 21.2 °F 26.6 °F 93% 29.56 in 0.8 mi ENE 6.9 mph - N/A Snow Light Snow
9:13 AM 28.4 °F 22.2 °F 26.6 °F 93% 29.57 in 1.0 mi NE 5.8 mph - N/A Snow Light Snow
9:33 AM 28.4 °F 21.2 °F 26.6 °F 93% 29.58 in 1.2 mi NE 6.9 mph - N/A Snow Light Snow
9:51 AM 28.4 °F 21.2 °F 26.6 °F 93% 29.58 in 1.2 mi ENE 6.9 mph - N/A Snow Light Snow
10:13 AM 28.4 °F 22.2 °F 26.6 °F 93% 29.60 in 1.8 mi NE 5.8 mph - N/A Snow Light Snow
10:33 AM 28.4 °F 21.2 °F 26.6 °F 93% 29.61 in 1.8 mi NNE 6.9 mph - N/A Snow Light Snow
10:53 AM 28.4 °F 21.2 °F 26.6 °F 93% 29.62 in 1.8 mi NNE 6.9 mph - N/A   Overcast
11:13 AM 28.4 °F 22.2 °F 26.6 °F 93% 29.63 in 2.0 mi NNE 5.8 mph - N/A   Overcast
11:33 AM 28.4 °F 22.2 °F 26.6 °F 93% 29.63 in 2.5 mi North 5.8 mph - N/A   Overcast
11:53 AM 30.2 °F 24.3 °F 26.6 °F 86% 29.63 in 2.0 mi NNE 5.8 mph - N/A   Overcast
12:13 PM 28.4 °F 24.6 °F 26.6 °F 93% 29.63 in 2.5 mi NNE 3.5 mph - N/A   Overcast
12:33 PM 30.2 °F 25.4 °F 26.6 °F 86% 29.63 in 2.5 mi NNE 4.6 mph - N/A   Overcast
12:53 PM 30.2 °F 26.7 °F 26.6 °F 86% 29.63 in 2.5 mi NE 3.5 mph - N/A   Overcast
1:13 PM 30.2 °F - 26.6 °F 86% 29.64 in 3.0 mi Calm Calm - N/A   Overcast
1:33 PM 30.2 °F - 26.6 °F 86% 29.64 in 3.0 mi Calm Calm - N/A   Overcast
1:53 PM 30.2 °F - 26.6 °F 86% 29.64 in 3.0 mi Calm Calm - N/A   Overcast
2:13 PM 30.2 °F - 26.6 °F 86% 29.65 in 3.0 mi Calm Calm - N/A   Overcast
2:33 PM 30.2 °F - 26.6 °F 86% 29.66 in 3.0 mi Calm Calm - 0.02 in   Overcast
2:53 PM 30.2 °F - 26.6 °F 86% 29.66 in 3.0 mi Calm Calm - 0.04 in   Overcast
3:13 PM 30.2 °F - 26.6 °F 86% 29.66 in 3.0 mi Calm Calm - 0.02 in   Overcast
3:33 PM 30.2 °F - 26.6 °F 86% 29.68 in 3.0 mi Calm Calm - 0.02 in   Overcast
3:53 PM 30.2 °F 22.6 °F 26.6 °F 86% 29.70 in 3.0 mi SW 8.1 mph - 0.02 in   Overcast
4:13 PM 30.2 °F 24.3 °F 26.6 °F 86% 29.70 in 3.0 mi SW 5.8 mph - N/A   Overcast
4:34 PM 30.2 °F 26.7 °F 26.6 °F 86% 29.69 in 3.0 mi SW 3.5 mph - N/A   Overcast
4:53 PM 30.2 °F 23.4 °F 26.6 °F 86% 29.71 in 3.0 mi SW 6.9 mph - N/A   Overcast
5:13 PM 30.2 °F 23.4 °F 28.4 °F 93% 29.72 in 4.0 mi SSW 6.9 mph - N/A   Overcast
5:34 PM 30.2 °F 22.6 °F 28.4 °F 93% 29.73 in 3.0 mi South 8.1 mph - N/A Snow Light Snow
5:53 PM 30.2 °F 22.6 °F 28.4 °F 93% 29.73 in 4.0 mi SSW 8.1 mph - N/A Snow Light Snow
6:13 PM 30.2 °F 23.4 °F 28.4 °F 93% 29.73 in 3.0 mi SSW 6.9 mph - N/A   Overcast
6:34 PM 30.2 °F 22.6 °F 28.4 °F 93% 29.74 in 4.0 mi SW 8.1 mph - N/A   Overcast
6:53 PM 30.2 °F 24.3 °F 26.6 °F 86% 29.74 in 4.0 mi SW 5.8 mph - N/A   Mostly Cloudy
7:13 PM 30.2 °F 23.4 °F 26.6 °F 86% 29.76 in 3.0 mi SW 6.9 mph - N/A   Overcast
7:33 PM 30.2 °F 24.3 °F 28.4 °F 93% 29.76 in 4.0 mi SSW 5.8 mph - N/A   Overcast
7:53 PM 30.2 °F 21.3 °F 28.4 °F 93% 29.77 in 4.0 mi SW 10.4 mph - N/A   Overcast
8:13 PM 32.0 °F 24.8 °F 28.4 °F 87% 29.77 in 5.0 mi SW 8.1 mph - N/A   Overcast
8:33 PM 32.0 °F 23.6 °F 28.4 °F 87% 29.77 in 5.0 mi WSW 10.4 mph - N/A   Overcast
8:53 PM 32.0 °F 23.6 °F 28.4 °F 87% 29.77 in 5.0 mi WSW 10.4 mph - N/A   Overcast
9:13 PM 32.0 °F 21.6 °F 28.4 °F 87% 29.78 in 5.0 mi WSW 15.0 mph - N/A   Overcast
9:33 PM 32.0 °F 23.0 °F 28.4 °F 87% 29.79 in 5.0 mi WSW 11.5 mph 20.7 mph N/A   Overcast
9:53 PM 32.0 °F 22.5 °F 28.4 °F 87% 29.79 in 5.0 mi WSW 12.7 mph - N/A   Overcast
10:13 PM 32.0 °F 21.6 °F 28.4 °F 87% 29.80 in 5.0 mi WSW 15.0 mph 18.4 mph N/A   Overcast
10:33 PM 32.0 °F 21.6 °F 28.4 °F 87% 29.81 in 5.0 mi WSW 15.0 mph - N/A   Overcast
10:53 PM 32.0 °F 21.6 °F 28.4 °F 87% 29.82 in 4.0 mi WSW 15.0 mph - N/A   Overcast
11:13 PM 32.0 °F 20.8 °F 28.4 °F 87% 29.83 in 5.0 mi WSW 17.3 mph - N/A   Overcast
11:33 PM 30.2 °F 19.8 °F 28.4 °F 93% 29.83 in 7.0 mi WSW 13.8 mph - N/A   Overcast
11:53 PM 30.2 °F 19.8 °F 26.6 °F 86% 29.83 in 7.0 mi West 13.8 mph - N/A   Overcast